sat.trackr.live / text

‹ back to catalog

ONEWEB-0294

NORAD 49083 · 2021-075J

PAYLOAD ACTIVE UNKNOWN

§ Identity

Operator
Country
UK
Launch date
2021-08-21
Launch site
TYMSC
Launch vehicle
Mass (kg)
RCS (m²)

Purposes: comms

External: N2YO · Heavens-Above · Gunter

§ Orbital elements

Epoch: 2026-09-20T04:04:07.931136Z

Period
109.72 min
Inclination
87.8984°
Eccentricity
0.0001543
Mean motion
13.12444793 rev/d
Perigee alt
1,212.5 km
Apogee alt
1,214.9 km
Semi-major
7,591.9 km
B*
6.5346e-4
RAAN
331.8063°
Arg perigee
98.1295°
Mean anomaly
262.0008°
Rev number
24,703

§ Raw data

ONEWEB-02941 49083U 21075J   26263.16953624  .00000248  00000+0  65346-3 0  99942 49083  87.8984 331.8063 0001543  98.1295 262.0008 13.12444793247033

JSON: /api/v1/satellites/49083 · /tle

For live sub-satellite position, see the globe view (requires WebGL).

§ Visibility from observer

Set your observer location to see the next 7 days of passes ≥ 10°. The values pass through the URL so the page stays shareable.

No JS? Fill the form by hand. The geolocation button needs JavaScript.